Home > Weather > Omaha > Past weeks

Flag for USA Past Weather in Omaha, Nebraska, USA — Yesterday and Last 2 Weeks

Now
87 °F

Scattered clouds.


Feels Like: 93 °F
Forecast: 68 / 89 °F
Wind: 8 mph from North

Location: Millard Airport

Current Time: Jun 27, 2016 at 3:32:10 PM

Latest Report: Jun 27, 2016 at 2:55 PM


Visibility: 10 mi

Pressure: 30.12 "Hg

Humidity: 60%

Dew Point: 71 °F

Location of OmahaLocation

Past Weather in Omaha — Graph

°F

Omaha Temperature Yesterday

Maximum temperature yesterday: 89 °F (at 5:55 PM)
Minimum temperature yesterday: 69 °F (at 11:55 PM)
Average temperature yesterday: 80 °F

High & Low Weather Summary for the Past Weeks

 TemperatureHumidityPressure
High97 °F (Jun 15, 4:55 PM)95% (Jun 27, 2:15 AM)30.21 "Hg (Jun 27, 2:15 AM)
Low66 °F (Jun 23, 5:55 AM)32% (Jun 15, 1:35 PM)29.63 "Hg (Jun 14, 4:55 PM)
Average81 °F67%29.95 "Hg
* Reported Jun 12 2:15 PM — Jun 27 2:15 PM, Omaha, Weather by CustomWeather, © 2016

Note: Actual official high and low records may vary slightly from our data, if they occured in-between our weather recording intervals... More about our weather records

Advertising

Omaha Weather History for the Previous 24 Hours

Scroll right to see more
 ConditionsComfort  
Time TempWeatherWind HumidityBarometerVisibility
2:15 PM
Mon, Jun 27
85 °FBroken clouds.8 mph67%30.13 "Hg10 mi
1:55 PM85 °FCloudy.6 mph67%30.14 "Hg10 mi
1:35 PM86 °FPartly sunny.No wind66%30.13 "Hg10 mi
1:15 PM85 °FBroken clouds.5 mph70%30.14 "Hg10 mi
12:55 PM84 °FOvercast.5 mph71%30.14 "Hg10 mi
12:35 PM87 °FBroken clouds.3 mph65%30.15 "Hg10 mi
12:15 PM84 °FBroken clouds.5 mph71%30.15 "Hg10 mi
11:55 AM84 °FPartly sunny.No wind67%30.15 "Hg10 mi
11:35 AM85 °FScattered clouds.No wind70%30.15 "Hg10 mi
11:15 AM83 °FPartly sunny.5 mph73%30.15 "Hg10 mi
10:55 AM84 °FScattered clouds.No wind72%30.14 "Hg10 mi
10:35 AM82 °FSunny.5 mph74%30.14 "Hg10 mi
10:15 AM83 °FSunny.5 mph75%30.14 "Hg10 mi
9:55 AM82 °FSunny.3 mph77%30.14 "Hg10 mi
9:35 AM80 °FSunny.No wind79%30.15 "Hg10 mi
9:15 AM80 °FSunny.3 mph80%30.15 "Hg10 mi
8:55 AM78 °FSunny.3 mph82%30.15 "Hg10 mi
8:35 AM76 °FSunny.No wind83%30.15 "Hg10 mi
8:15 AM74 °FSunny.No wind87%30.15 "Hg10 mi
7:55 AM73 °FSunny.7 mph89%30.14 "Hg10 mi
7:35 AM72 °FSunny.3 mph88%30.14 "Hg10 mi
7:15 AM71 °FSunny.No wind91%30.13 "Hg10 mi
6:55 AM68 °FSunny.No wind94%30.13 "Hg10 mi
6:35 AM68 °FClear.No wind95%30.12 "Hg10 mi
6:15 AM68 °FClear.No wind94%30.11 "Hg10 mi
5:55 AM68 °FClear.No wind93%30.12 "Hg10 mi
5:35 AM68 °FClear.3 mph92%30.11 "Hg10 mi
5:15 AM67 °FClear.3 mph95%30.11 "Hg10 mi
4:55 AM68 °FClear.No wind94%30.11 "Hg10 mi
4:15 AM68 °FFog.No wind95%30.11 "Hg5 mi
3:55 AM69 °FClear.No wind94%30.11 "Hg10 mi
3:35 AM69 °FClear.No wind94%30.11 "Hg10 mi
3:15 AM69 °FClear.No wind94%30.11 "Hg10 mi
2:55 AM70 °FClear.No wind92%30.10 "Hg10 mi
2:35 AM69 °FClear.No wind92%30.11 "Hg10 mi
2:15 AM69 °FClear.No wind95%30.12 "Hg10 mi
1:55 AM68 °FClear.No wind93%30.12 "Hg10 mi
1:15 AM68 °FClear.No wind93%30.12 "Hg10 mi
12:55 AM68 °FClear.No wind93%30.12 "Hg10 mi
12:35 AM68 °FClear.No wind93%30.12 "Hg10 mi
12:15 AM68 °FClear.No wind92%30.11 "Hg10 mi
11:55 PM
Sun, Jun 26
69 °FClear.No wind91%30.11 "Hg10 mi
11:35 PM70 °FClear.No wind88%30.11 "Hg10 mi
11:15 PM70 °FClear.No wind87%30.11 "Hg10 mi
10:55 PM71 °FClear.No wind85%30.11 "Hg10 mi
10:15 PM74 °FClear.No wind78%30.10 "Hg10 mi
9:55 PM74 °FSunny.No wind75%30.10 "Hg10 mi
9:35 PM77 °FSunny.No wind69%30.09 "Hg10 mi
9:15 PM78 °FSunny.No wind63%30.08 "Hg10 mi
8:55 PM80 °FSunny.3 mph59%30.09 "Hg10 mi
8:35 PM80 °FSunny.5 mph56%30.08 "Hg10 mi
8:15 PM83 °FSunny.7 mph52%30.08 "Hg10 mi
7:55 PM84 °FSunny.7 mph50%30.08 "Hg10 mi
7:35 PM86 °FSunny.8 mph44%30.07 "Hg10 mi
7:15 PM87 °FSunny.8 mph42%30.06 "Hg10 mi
6:55 PM88 °FSunny.7 mph35%30.05 "Hg10 mi
6:35 PM88 °FSunny.No wind42%30.05 "Hg10 mi
6:15 PM89 °FSunny.3 mph39%30.05 "Hg10 mi
5:55 PM89 °FSunny.3 mph36%30.05 "Hg10 mi
5:35 PM89 °FSunny.5 mph34%30.06 "Hg10 mi
5:15 PM89 °FSunny.7 mph44%30.06 "Hg10 mi
4:55 PM89 °FSunny.5 mph39%30.06 "Hg10 mi
4:35 PM89 °FSunny.7 mph40%30.07 "Hg10 mi
4:15 PM88 °FSunny.3 mph42%30.07 "Hg10 mi
3:55 PM89 °FSunny.8 mph43%30.07 "Hg10 mi
3:35 PM89 °FSunny.7 mph42%30.08 "Hg10 mi
3:15 PM88 °FSunny.3 mph42%30.08 "Hg10 mi
Weather by CustomWeather, © 2016

See weather overviewHow to use our weather pages